Date String (YYYY-MM-DD hh:mm:ss) UTC,Instrument flags,absolute air pressure of the measurement (hPa),sample flow rate (lpm),inlet stack bypass flow (lpm),air temperature of the measurement (°C),ambient temperature measured by the external sensor (°C),aerosol sample conditioner tube jacket temperature (°C),OPC LED temperature (°C),internal box temperature (°C),relative humidity of the measurement (%),span deviation,mass concentration of particles derived from Lorenz-Mie calculation of OPC scattering (μg/m³),mass concentration of particles derived from Lorenz-Mie calculation of OPC scattering (μg/m³),mass concentration of particles derived from Lorenz-Mie calculation of OPC scattering (μg/m³)
DateTimeUTC,F1_M11,P_M11,Q1_M11,Q2_M11,T1_M11,T2_M11,T3_M11,T4_M11,T5_M11,U1_M11,ZSPAN_M11,X0_M11,X2_M11,X1_M11
2023-08-18 04:00:00,SystemResetWarning,0830.8,5.01,000.00,028.3,026.3,000.0,036.8,029.8,31.5,0000.7,0023.49,0012.22,0010.95
2023-08-18 04:01:00,SystemResetWarning,0830.8,4.99,000.00,028.4,026.5,000.0,036.8,029.9,31.4,0000.6,0022.96,0011.97,0010.78
2023-08-18 04:02:00,SystemResetWarning,0830.8,4.99,000.00,028.4,026.7,000.0,036.8,030.0,31.3,0000.6,0022.09,0011.77,0010.66
2023-08-18 04:03:00,SystemResetWarning,0830.8,5.00,000.00,028.4,026.4,000.0,036.7,029.9,31.4,0000.6,0020.74,0011.60,0010.54
2023-08-18 04:04:00,SystemResetWarning,0830.9,5.00,000.00,028.4,024.8,000.0,036.6,029.7,33.7,0001.0,0019.88,0011.41,0010.42
2023-08-18 04:05:00,SystemResetWarning,0830.8,5.00,000.00,028.3,023.8,000.0,036.5,029.5,35.0,0001.0,0019.00,0011.26,0010.32
2023-08-18 04:06:00,SystemResetWarning,0830.8,5.01,000.00,028.3,023.9,000.0,036.5,029.3,34.7,0001.0,0019.37,0011.21,0010.24
2023-08-18 04:07:00,SystemResetWarning,0830.8,5.02,000.00,028.3,024.2,000.0,036.5,029.3,35.0,0001.1,0019.55,0011.18,0010.21
2023-08-18 04:08:00,SystemResetWarning,0830.8,4.97,000.00,028.5,024.7,000.0,036.6,029.5,34.5,0001.2,0019.66,0011.13,0010.17
2023-08-18 04:09:00,SystemResetWarning,0830.8,5.01,000.00,028.5,025.1,000.0,036.6,029.6,33.7,0001.1,0018.70,0011.12,0010.14
2023-08-18 04:10:00,SystemResetWarning,0830.8,5.01,000.00,028.6,025.5,000.0,036.6,029.7,33.5,0001.2,0018.96,0011.09,0010.09
2023-08-18 04:11:00,SystemResetWarning,0830.8,4.99,000.00,028.7,025.9,000.0,036.7,029.8,32.9,0001.5,0018.71,0010.98,0009.98
2023-08-18 04:12:00,SystemResetWarning,0830.8,4.99,000.00,028.7,026.2,000.0,036.7,029.8,32.6,0001.8,0018.69,0010.88,0009.83
2023-08-18 04:13:00,SystemResetWarning,0830.8,5.01,000.00,028.7,026.4,000.0,036.8,029.9,32.9,0001.9,0018.35,0010.76,0009.70
2023-08-18 04:14:00,SystemResetWarning,0830.8,4.99,000.00,028.8,026.7,000.0,036.8,030.0,33.0,0001.6,0018.32,0010.63,0009.58
2023-08-18 04:15:00,SystemResetWarning,0830.8,4.99,000.00,028.8,026.8,000.0,036.9,030.1,32.6,0001.2,0018.39,0010.48,0009.44
2023-08-18 04:16:00,SystemResetWarning,0830.8,4.99,000.00,028.9,026.1,000.0,036.8,030.0,32.0,0001.6,0018.15,0010.38,0009.34
2023-08-18 04:17:00,SystemResetWarning,0830.7,5.00,000.00,028.8,024.5,000.0,036.8,029.6,31.8,0001.3,0017.73,0010.36,0009.36
2023-08-18 04:18:00,SystemResetWarning,0830.7,5.00,000.00,028.7,023.8,000.0,036.7,029.4,31.4,0001.0,0017.57,0010.35,0009.36
2023-08-18 04:19:00,SystemResetWarning,0830.7,5.00,000.00,028.6,023.9,000.0,036.7,029.2,31.0,0001.0,0017.66,0010.36,0009.35
2023-08-18 04:20:00,SystemResetWarning,0830.7,5.01,000.00,028.5,024.3,000.0,036.7,029.2,31.0,0001.0,0017.21,0010.25,0009.30
2023-08-18 04:21:00,SystemResetWarning,0830.7,5.00,000.00,028.4,024.7,000.0,036.7,029.4,30.8,0001.0,0016.21,0010.16,0009.25
2023-08-18 04:22:00,SystemResetWarning,0830.7,5.00,000.00,028.4,025.2,000.0,036.7,029.5,30.7,0000.9,0015.12,0010.16,0009.27
2023-08-18 04:23:00,SystemResetWarning,0830.7,5.00,000.00,028.4,025.6,000.0,036.8,029.6,30.5,0000.6,0014.90,0010.20,0009.33
2023-08-18 04:24:00,SystemResetWarning,0830.7,4.99,000.00,028.5,025.9,000.0,036.8,029.7,30.5,0000.2,0015.43,0010.19,0009.33
2023-08-18 04:25:00,SystemResetWarning,0830.7,4.99,000.00,028.5,026.2,000.0,036.8,029.8,30.4,0000.1,0015.57,0010.18,0009.30
2023-08-18 04:26:00,SystemResetWarning,0830.6,4.99,000.00,028.5,026.4,000.0,036.8,029.9,30.4,-000.0,0015.36,0010.15,0009.29
2023-08-18 04:27:00,SystemResetWarning,0830.6,5.01,000.00,028.5,026.7,000.0,036.8,029.9,30.1,-000.3,0016.01,0010.11,0009.26
2023-08-18 04:28:00,SystemResetWarning,0830.6,5.01,000.00,028.6,026.8,000.0,036.8,030.0,29.7,-000.2,0015.91,0009.94,0009.12
2023-08-18 04:29:00,SystemResetWarning,0830.5,4.99,000.00,028.6,025.8,000.0,036.8,029.9,29.6,0000.0,0016.27,0009.84,0009.01
2023-08-18 04:30:00,SystemResetWarning,0830.6,4.99,000.00,028.5,024.2,000.0,036.7,029.6,29.5,0000.4,0016.91,0009.75,0008.92
2023-08-18 04:31:00,SystemResetWarning,0830.5,5.01,000.00,028.4,023.7,000.0,036.6,029.4,29.5,0000.1,0016.96,0009.68,0008.86
2023-08-18 04:32:00,SystemResetWarning,0830.5,5.01,000.00,028.3,023.9,000.0,036.6,029.2,29.7,0000.1,0017.53,0009.74,0008.88
2023-08-18 04:33:00,SystemResetWarning,0830.4,5.00,000.00,028.2,024.3,000.0,036.6,029.3,29.7,0000.2,0017.81,0009.84,0008.99
2023-08-18 04:34:00,SystemResetWarning,0830.4,5.00,000.00,028.2,024.8,000.0,036.6,029.4,29.0,0000.8,0018.15,0009.93,0009.05
2023-08-18 04:35:00,SystemResetWarning,0830.5,5.00,000.00,028.2,025.2,000.0,036.6,029.5,29.0,0001.3,0018.35,0010.08,0009.14
2023-08-18 04:36:00,SystemResetWarning,0830.9,5.00,000.00,028.2,025.6,000.0,036.6,029.6,28.9,0001.3,0018.71,0010.26,0009.28
2023-08-18 04:37:00,SystemResetWarning,0830.4,5.00,000.00,028.2,025.9,000.0,036.6,029.7,28.7,0001.3,0019.41,0010.38,0009.38
2023-08-18 04:38:00,SystemResetWarning,0830.4,5.00,000.00,028.3,026.2,000.0,036.7,029.8,28.5,0001.3,0019.25,0010.51,0009.48
2023-08-18 04:39:00,SystemResetWarning,0830.4,5.00,000.00,028.3,026.5,000.0,036.7,029.8,28.7,0001.2,0019.61,0010.59,0009.54
2023-08-18 04:40:00,SystemResetWarning,0830.4,5.01,000.00,028.3,026.7,000.0,036.7,029.9,28.6,0001.2,0019.79,0010.61,0009.58
2023-08-18 04:41:00,SystemResetWarning,0830.5,4.99,000.00,028.4,026.9,000.0,036.7,030.0,28.9,0000.8,0019.85,0010.69,0009.67
2023-08-18 04:42:00,SystemResetWarning,0830.5,4.98,000.00,028.4,026.4,000.0,036.7,029.9,28.7,0000.8,0019.81,0010.81,0009.77
2023-08-18 04:43:00,SystemResetWarning,0830.4,5.00,000.00,028.4,024.7,000.0,036.6,029.5,28.8,0001.2,0019.44,0010.83,0009.79
2023-08-18 04:44:00,SystemResetWarning,0830.4,5.00,000.00,028.3,023.8,000.0,036.5,029.3,28.7,0001.4,0019.88,0010.76,0009.72
2023-08-18 04:45:00,SystemResetWarning,0830.4,5.00,000.00,028.2,023.8,000.0,036.4,029.2,28.9,0000.9,0019.76,0010.64,0009.63
2023-08-18 04:46:00,SystemResetWarning,0830.4,5.02,000.00,028.0,024.2,000.0,036.4,029.2,29.0,0000.8,0019.32,0010.52,0009.53
2023-08-18 04:47:00,SystemResetWarning,0830.5,5.00,000.00,028.0,024.6,000.0,036.5,029.3,29.1,0001.2,0018.71,0010.29,0009.38
2023-08-18 04:48:00,SystemResetWarning,0830.5,5.00,000.00,028.0,025.1,000.0,036.5,029.4,29.0,0001.7,0017.83,0010.13,0009.26
2023-08-18 04:49:00,SystemResetWarning,0830.4,5.00,000.00,028.0,025.5,000.0,036.5,029.5,28.9,0001.5,0017.15,0009.98,0009.12
2023-08-18 04:50:00,SystemResetWarning,0830.4,5.00,000.00,028.1,025.8,000.0,036.5,029.6,29.5,0001.6,0016.55,0009.82,0008.99
2023-08-18 04:51:00,SystemResetWarning,0830.4,5.00,000.00,028.1,026.1,000.0,036.5,029.7,29.5,0001.3,0015.89,0009.71,0008.88
2023-08-18 04:52:00,SystemResetWarning,0830.4,5.00,000.00,028.1,026.4,000.0,036.5,029.7,28.6,0001.2,0015.70,0009.55,0008.75
2023-08-18 04:53:00,SystemResetWarning,0830.4,5.00,000.00,028.2,026.6,000.0,036.6,029.8,28.6,0001.8,0015.84,0009.35,0008.60
2023-08-18 04:54:00,SystemResetWarning,0830.4,5.00,000.00,028.2,026.8,000.0,036.6,029.9,27.6,0001.8,0015.57,0009.18,0008.48
2023-08-18 04:55:00,SystemResetWarning,0830.4,5.00,000.00,028.3,026.9,000.0,036.6,030.0,27.4,0000.9,0014.94,0009.08,0008.37
2023-08-18 04:56:00,SystemResetWarning,0830.3,4.99,000.00,028.3,026.2,000.0,036.6,029.8,26.9,0000.9,0015.23,0008.93,0008.25
2023-08-18 04:57:00,SystemResetWarning,0830.3,4.99,000.00,028.2,024.5,000.0,036.5,029.5,27.0,0001.0,0015.98,0008.80,0008.14
2023-08-18 04:58:00,SystemResetWarning,0830.3,5.00,000.00,028.1,023.8,000.0,036.4,029.3,27.5,0001.2,0015.68,0008.68,0008.06
2023-08-18 04:59:00,SystemResetWarning,0830.3,5.02,000.00,028.0,023.9,000.0,036.3,029.1,27.1,0000.9,0015.93,0008.63,0008.00
